CZ-6A DEB, 54543

Orbit data source: Space-Track

CZ-6A DEB, 54543 is space debris in SSO originally from a launch on Fri, 11 Nov 2022 UTC launched from the Taiyaun Space Center, China (TSC). Debris objects in space refer to the collection of defunct objects orbiting the Earth. Examples of debris include non-operational satellites, rocket bodies, and fragments generated from explosions, collisions, or faulty payload assembly.

Loading next visibility...
Identifier
54543, 2022-151KT
Orbit
SSO
Country
Flag of CNCN / PRC
Related business
Manufacturer
SAST
Mission
Spacecraft
Bus & Motor
Unknown
Mass
Unknown
Launch date (UTC)
2022-11-11 (4 years ago)
Launch vehicle
Unknown
Launch site
Taiyaun Space Center, China (TSC)
Object type
Payload
Rocket body
Debris
Shape & HBR
Unknown shape, 0.1 m
Radar Cross Section
Medium (>0.1 m² and <1 m²)

Expand to show TLE details & history
Last TLE update: 17 hours ago

TLE from 17 hours ago
0 CZ-6A DEB
1 54543U 22151KT  26235.45622457  .00002355  00000-0  54991-3 0  9991
2 54543  98.7300 313.7117 0111250 114.9972 246.2825 14.51996117199277
Epoch: 2026-08-23T10:56Z
TLE epoch observation values (Epoch: 2026-08-23T10:56:57.802Z)
Latitude
-0.00003°
Longitude
177.71884°
Altitude
754.592 km
Speed
7.46 km/s
True Right ascension
20h 54m 50s
True Declination
0° 00' 00"
Sunlit
Object was in full shadow at epoch
Visualization orbit readout
Latitude
Unknown
Longitude
Unknown
Altitude
Unknown
Speed
Unknown
Apparent Right ascension
Unknown
Apparent Declination
Unknown
Sunlit
N/A
Visualization observer readout
Local Sidereal Time
19:30:22
Azimuth
Unknown
Elevation
Unknown
Doppler factor
Unknown
Orbital elements
Apogee altitude
795.178 km
Perigee altitude
637.328 km
Semi-major axis
7,094.39 km
Eccentricity
0.01113
Inclination
98.73°
RAAN
313.7117°
Arg. of periapsis
114.9972°
True anomaly
245.12191°
Mean anomaly
246.2825°
Eccentric anomaly
245.70155°
Mean motion
3.63221 °/min
Orbital period
99.11 mins
BSTAR
0.00054991
Loading maneuver chart data...
Computing Atmospheric mass density...
Loading historical data...
Loading historical data...
Loading historical data...
Loading historical data...
Loading historical data...
Loading historical data...
Loading historical data...

Documentation

Showing up to 5 results
|